User: anonymous   Login
Location: Unspecified
(0.0000°N, 0.0000°E)
Time: 16:53:02
(UTC+00:00)
Language:

Explorer 7 - Orbit

View from above orbital plane
View from above orbital plane
View from above satellite
View from above satellite

Ground track
Ground track

The orbit data is extracted from the following two-line orbital elements,

1 00022U 59009A   17348.22925723  .00000074  00000-0  29122-4 0  9993
2 00022  50.2852  78.6486 0141319   0.0379   0.0556 14.94384181 88279
Epoch (UTC): 14 December 2017 05:30:07
Eccentricity: 0.0141319
inclination: 50.2852°
perigee height: 486 km
apogee height: 682 km
right ascension of ascending node: 78.6486°
argument of perigee: 0.0379°
revolutions per day: 14.94384181
mean anomaly at epoch: 0.0556°
orbit number at epoch: 8827

The dashed part of the orbit path shows where the satellite is in the earth's shadow,  

DLR